GORIZONT 12 (16769 NORAD) Tracking and Keplerian Element Data

This shows tracking and keplerian element data for the satellite.

Feedback or suggestion? Click here.




ElementValue
Catalog16769
NameGORIZONT 12
Epoch Orbit14546
Epoch Day353.99356032
Epoch Year2025
RAAN322.2681
Inclination10.3359
Eccentricity0.0006
Argument of Perigee306.3038
Mean Anonmoly243.6642
Mean Motion1.00344856
Decay Rate-3E-08
L11 16769U 86044A 25353.99356032 -.00000003 00000+0 00000+0 0 9998
L22 16769 10.3359 322.2681 0006000 306.3038 243.6642 1.00344856145463



Live tracking and technical data element details for GORIZONT 12 (NORAD 16769). GORIZONT 12 can be tracked NOW for your location showing map with azimuth and elevation plus other details from your city location.







IsCatalogInMostPopularTable: catalog: 16769, numindb: 357
Update: records affected: 1



GetName: 16769 GORIZONT 12

Hit Count: updated at: Mon, 18 May 2026 10:15:54 GMT